Flag for U.S.A. Weather past 2 weeks in Portland, Maine, U.S.A.

Now
61 °F

Sunny.


Feels Like: 61 °F
Forecast: 51 / 65 °F
Wind: No wind

Location: Portland - Portland International Jetport

Current Time: Sep 17, 2014 at 10:18:32 AM

Latest Report: Sep 17, 2014 at 9:51 AM


Visibility: 10 mi

Pressure: 30.01 "Hg

Humidity: 75%

Dew point: 53 °F

Location of PortlandLocation

Historic Weather in Portland — Graph

°F

Portland temperature yesterday

Maximum temperature yesterday: 60 °F (at 1:51 PM)
Minimum temperature yesterday: 49 °F (at 11:51 PM)
Average temperature yesterday: 55 °F

Past Weeks' High & Low Weather Summary

 TemperatureHumidityPressure
High86 °F (Sep 6, 1:51 PM)97% (Sep 2, 8:51 AM)30.42 "Hg (Sep 2, 8:51 AM)
Low42 °F (Sep 15, 6:51 AM)38% (Sep 7, 2:51 PM)29.65 "Hg (Sep 3, 2:51 AM)
Average62 °F77%30.08 "Hg
* Reported Sep 2 8:51 AM — Sep 17 8:51 AM, Portland, Weather by CustomWeather, © 2014

Note: Actual official high and low records may vary slightly from our data, if they occured in-between our weather recording intervals... More about our weather records

Advertising

Portland weather history for previous 24 hours

 ConditionsComfort  
Time TempWeatherWind HumidityBarometerVisibility
8:51 AM
Sep 17
55 °FSunny.3 mph87%30.01 "Hg10 mi
7:51 AM51 °FPassing clouds.No wind92%30.01 "Hg10 mi
6:51 AM45 °FClear.No wind97%29.99 "Hg10 mi
5:51 AM45 °FPassing clouds.5 mph97%29.98 "Hg10 mi
4:51 AM46 °FPassing clouds.No wind89%29.98 "Hg10 mi
3:51 AM47 °FClear.3 mph93%29.97 "Hg10 mi
2:51 AM46 °FClear.No wind96%29.97 "Hg10 mi
1:51 AM47 °FClear.5 mph93%29.98 "Hg9 mi
12:51 AM47 °FClear.No wind93%29.98 "Hg10 mi
11:51 PM
Sep 16
49 °FClear.No wind97%29.98 "Hg8 mi
10:51 PM50 °FPassing clouds.No wind96%29.98 "Hg8 mi
9:51 PM52 °FClear.6 mph93%29.97 "Hg8 mi
8:58 PM52 °FFog.No wind93%29.97 "Hg1 mi
7:51 PM54 °FPassing clouds.3 mph90%29.96 "Hg10 mi
6:51 PM57 °FScattered clouds.3 mph87%29.96 "Hg10 mi
5:51 PM59 °FScattered clouds.6 mph81%29.94 "Hg10 mi
4:51 PM59 °FPartly sunny.7 mph84%29.94 "Hg10 mi
3:51 PM59 °FMostly cloudy.7 mph81%29.96 "Hg10 mi
2:51 PM59 °FMostly cloudy.7 mph84%29.96 "Hg10 mi
1:51 PM60 °FMostly cloudy.3 mph80%29.96 "Hg10 mi
12:51 PM59 °FOvercast.6 mph78%29.99 "Hg10 mi
11:51 AM58 °FLight rain. Overcast.5 mph84%30.01 "Hg10 mi
10:51 AM57 °FLight rain. Overcast.No wind83%30.03 "Hg10 mi
Weather by CustomWeather, © 2014

See weather overviewHow to use our weather pages